Location: Casteau
(50.5142°N, 4.0161°E)
Time: 19:40:23
(UTC+00:00)

Tiros 1 - Pass Details

Date: 06 August 2021
Orbit: 630 x 663 km, 48.4° (Epoch: 28 September)

Event Time Altitude Azimuth Distance (km) Brightness Sun altitude
Rises 16:47:52 0° 239° (WSW) 2,987 11.5 22.5°
Reaches altitude 10° 16:50:16 10° 234° (SW) 2,074 10.8 22.1°
Maximum altitude 16:54:52 48° 160° (SSE) 860 7.9 21.3°
Drops below altitude 10° 16:59:27 10° 87° (E) 2,064 9.2 20.6°
Sets 17:01:50 0° 82° (E) 2,972 10.0 20.2°
